Location: Bruch
(44.2051°N, 0.4120°E)
Time: 09:26:18
(UTC+00:00)

NOSS 3-4 (A) - Pass Details

Date: 29 November 2020
Orbit: 879 x 1333 km, 63.4° (Epoch: 22 January)

Event Time Altitude Azimuth Distance (km) Brightness Sun altitude
Exits shadow 05:48:23 21° 278° (W) 1,949 4.5 -14.6°
Maximum altitude 05:51:25 31° 324° (NW) 1,570 4.2 -14.0°
Drops below altitude 10° 05:57:03 10° 26° (NNE) 2,764 6.0 -13.1°
Sets 06:00:06 0° 36° (NE) 3,789 6.8 -12.6°
